• Em Portugal
  • Lista de países
  • Para 7 dias
  • Temperatura da água
  • Mapas de satélite
  • Mapa do tempo
  • Widgets de tempo
  • user-avatar
    Iniciar Sessão

    Previsão horária em Maceió

    Hoje, 23 Janeiro, Terça-feira

    Tempo Temperatura Precipitação Vento Pressão Humidade
    00:00 +26°C° 0,1 mm 3 m/s 758 mmHg 90%
    01:00 +26°C° 0,1 mm 3 m/s 758 mmHg 92%
    02:00 +26°C° 0,2 mm 3 m/s 758 mmHg 93%
    03:00 +26°C° 0,2 mm 3 m/s 758 mmHg 93%
    04:00 +25°C° 0,2 mm 3 m/s 757 mmHg 93%
    05:00 +26°C° 0,3 mm 3 m/s 757 mmHg 93%
    06:00 +26°C° 0,3 mm 3 m/s 758 mmHg 92%
    07:00 +26°C° 0,3 mm 3 m/s 758 mmHg 91%
    08:00 +28°C° 0,8 mm 3 m/s 758 mmHg 83%
    09:00 +29°C° 0,8 mm 4 m/s 758 mmHg 75%
    10:00 +32°C° 0,8 mm 4 m/s 759 mmHg 66%
    11:00 +32°C° 1,1 mm 5 m/s 758 mmHg 66%
    12:00 +32°C° 1,1 mm 5 m/s 758 mmHg 65%
    13:00 +33°C° 1,1 mm 5 m/s 758 mmHg 65%
    14:00 +32°C° 1 mm 5 m/s 758 mmHg 68%
    15:00 +30°C° 1 mm 5 m/s 757 mmHg 72%
    16:00 +30°C° 1 mm 5 m/s 757 mmHg 75%
    17:00 +29°C° 0,4 mm 5 m/s 757 mmHg 80%
    18:00 +28°C° 0,4 mm 4 m/s 757 mmHg 84%
    19:00 +27°C° 0,4 mm 4 m/s 757 mmHg 89%
    20:00 +27°C° 0,4 mm 4 m/s 758 mmHg 90%
    21:00 +26°C° 0,4 mm 4 m/s 758 mmHg 90%
    22:00 +26°C° 0,4 mm 4 m/s 758 mmHg 91%
    23:00 +26°C° 0,2 mm 4 m/s 758 mmHg 92%

    Amanhã, 24 Janeiro, Quarta-feira

    Tempo Temperatura Precipitação Vento Pressão Humidade
    00:00 +26°C° 0,2 mm 4 m/s 758 mmHg 92%
    01:00 +26°C° 0,2 mm 4 m/s 758 mmHg 92%
    02:00 +26°C° 0,2 mm 4 m/s 758 mmHg 92%
    03:00 +26°C° 0,2 mm 4 m/s 757 mmHg 93%
    04:00 +26°C° 0,2 mm 4 m/s 757 mmHg 93%
    05:00 +26°C° 0,1 mm 4 m/s 757 mmHg 92%
    06:00 +26°C° 0,1 mm 4 m/s 757 mmHg 92%
    07:00 +26°C° 0,1 mm 4 m/s 758 mmHg 92%
    08:00 +28°C° 0,1 mm 4 m/s 758 mmHg 85%
    09:00 +29°C° 0,1 mm 5 m/s 758 mmHg 78%
    10:00 +30°C° 0,1 mm 5 m/s 759 mmHg 71%
    11:00 +32°C° 0,1 mm 5 m/s 758 mmHg 65%
    12:00 +33°C° 0,1 mm 5 m/s 758 mmHg 59%
    13:00 +35°C° 0,1 mm 5 m/s 758 mmHg 53%
    14:00 +34°C° 0 mm 5 m/s 757 mmHg 54%
    15:00 +34°C° 0 mm 5 m/s 757 mmHg 55%
    16:00 +34°C° 0 mm 5 m/s 756 mmHg 56%
    17:00 +32°C° 0 mm 5 m/s 756 mmHg 63%
    18:00 +29°C° 0 mm 4 m/s 757 mmHg 70%
    19:00 +28°C° 0 mm 4 m/s 757 mmHg 77%
    20:00 +27°C° 0 mm 4 m/s 757 mmHg 81%
    21:00 +27°C° 0 mm 3 m/s 758 mmHg 85%
    22:00 +26°C° 0 mm 3 m/s 758 mmHg 88%
    23:00 +26°C° 0 mm 3 m/s 758 mmHg 89%

    Depois de amanhã, 25 Janeiro, Quinta-feira

    Tempo Temperatura Precipitação Vento Pressão Humidade
    00:00 +26°C° 0 mm 3 m/s 758 mmHg 90%
    01:00 +25°C° 0 mm 3 m/s 757 mmHg 91%
    02:00 +25°C° 0,1 mm 2 m/s 757 mmHg 91%
    03:00 +25°C° 0,1 mm 2 m/s 757 mmHg 91%
    04:00 +25°C° 0,1 mm 2 m/s 756 mmHg 91%
    05:00 +25°C° 0,1 mm 2 m/s 756 mmHg 91%
    06:00 +26°C° 0,1 mm 2 m/s 757 mmHg 90%
    07:00 +26°C° 0,1 mm 2 m/s 757 mmHg 89%
    08:00 +27°C° 0,1 mm 2 m/s 757 mmHg 81%
    09:00 +29°C° 0,1 mm 2 m/s 758 mmHg 73%
    10:00 +30°C° 0,1 mm 2 m/s 758 mmHg 65%
    11:00 +31°C° 0,1 mm 3 m/s 758 mmHg 62%
    12:00 +33°C° 0,1 mm 3 m/s 757 mmHg 58%
    13:00 +34°C° 0,1 mm 3 m/s 757 mmHg 54%
    14:00 +34°C° 0,1 mm 4 m/s 756 mmHg 56%
    15:00 +34°C° 0,1 mm 4 m/s 756 mmHg 58%
    16:00 +33°C° 0,1 mm 4 m/s 755 mmHg 60%
    17:00 +32°C° 0 mm 4 m/s 755 mmHg 66%
    18:00 +30°C° 0 mm 4 m/s 756 mmHg 71%
    19:00 +28°C° 0 mm 4 m/s 756 mmHg 77%
    20:00 +28°C° 0 mm 4 m/s 757 mmHg 81%
    21:00 +27°C° 0 mm 3 m/s 757 mmHg 85%
    22:00 +26°C° 0 mm 3 m/s 758 mmHg 89%
    23:00 +26°C° 0 mm 3 m/s 757 mmHg 90%

    26 Janeiro, Sexta-feira

    Tempo Temperatura Precipitação Vento Pressão Humidade
    00:00 +26°C° 0 mm 3 m/s 757 mmHg 91%
    01:00 +26°C° 0 mm 3 m/s 756 mmHg 92%
    02:00 +26°C° 0,1 mm 3 m/s 756 mmHg 92%
    03:00 +26°C° 0,1 mm 3 m/s 756 mmHg 93%
    04:00 +25°C° 0,1 mm 3 m/s 755 mmHg 93%
    05:00 +25°C° 0 mm 3 m/s 756 mmHg 92%
    06:00 +26°C° 0 mm 3 m/s 756 mmHg 92%
    07:00 +26°C° 0 mm 3 m/s 757 mmHg 91%
    08:00 +28°C° 0 mm 3 m/s 757 mmHg 80%
    09:00 +30°C° 0 mm 3 m/s 757 mmHg 70%
    10:00 +33°C° 0 mm 3 m/s 758 mmHg 60%
    11:00 +34°C° 0 mm 4 m/s 757 mmHg 56%
    12:00 +35°C° 0 mm 4 m/s 757 mmHg 51%
    13:00 +36°C° 0 mm 5 m/s 756 mmHg 47%
    14:00 +36°C° 0 mm 5 m/s 756 mmHg 48%
    15:00 +35°C° 0 mm 5 m/s 755 mmHg 50%
    16:00 +35°C° 0 mm 5 m/s 755 mmHg 51%
    17:00 +33°C° 0 mm 5 m/s 755 mmHg 58%
    18:00 +32°C° 0 mm 5 m/s 755 mmHg 64%
    19:00 +29°C° 0 mm 5 m/s 756 mmHg 71%
    20:00 +28°C° 0 mm 4 m/s 756 mmHg 76%
    21:00 +28°C° 0 mm 4 m/s 757 mmHg 81%
    22:00 +27°C° 0 mm 4 m/s 757 mmHg 85%
    23:00 +26°C° 0 mm 4 m/s 757 mmHg 88%

    27 Janeiro, Sábado

    Tempo Temperatura Precipitação Vento Pressão Humidade
    00:00 +26°C° 0 mm 4 m/s 757 mmHg 90%
    01:00 +26°C° 0 mm 3 m/s 756 mmHg 92%
    02:00 +25°C° 0 mm 3 m/s 756 mmHg 93%
    03:00 +25°C° 0 mm 3 m/s 756 mmHg 94%
    04:00 +25°C° 0 mm 3 m/s 756 mmHg 95%
    05:00 +25°C° 0 mm 3 m/s 756 mmHg 94%
    06:00 +25°C° 0 mm 3 m/s 756 mmHg 93%
    07:00 +25°C° 0 mm 3 m/s 757 mmHg 92%
    08:00 +27°C° 0 mm 3 m/s 757 mmHg 81%
    09:00 +30°C° 0 mm 3 m/s 757 mmHg 69%
    10:00 +33°C° 0 mm 3 m/s 757 mmHg 58%
    11:00 +34°C° 0 mm 4 m/s 757 mmHg 52%
    12:00 +35°C° 0 mm 4 m/s 757 mmHg 46%
    13:00 +37°C° 0 mm 4 m/s 756 mmHg 41%
    14:00 +36°C° 0 mm 5 m/s 756 mmHg 43%
    15:00 +36°C° 0 mm 5 m/s 755 mmHg 45%
    16:00 +36°C° 0 mm 6 m/s 755 mmHg 48%
    17:00 +34°C° 0 mm 5 m/s 755 mmHg 55%
    18:00 +32°C° 0 mm 5 m/s 755 mmHg 63%
    19:00 +29°C° 0 mm 5 m/s 756 mmHg 71%
    20:00 +28°C° 0 mm 5 m/s 756 mmHg 75%
    21:00 +28°C° 0 mm 5 m/s 757 mmHg 79%
    22:00 +27°C° 0 mm 5 m/s 757 mmHg 83%
    23:00 +27°C° 0 mm 4 m/s 757 mmHg 86%

    28 Janeiro, Domingo

    Tempo Temperatura Precipitação Vento Pressão Humidade
    00:00 +26°C° 0 mm 4 m/s 757 mmHg 88%
    01:00 +26°C° 0 mm 4 m/s 756 mmHg 91%
    02:00 +26°C° 0,1 mm 3 m/s 756 mmHg 92%
    03:00 +26°C° 0,1 mm 3 m/s 756 mmHg 92%
    04:00 +26°C° 0,1 mm 3 m/s 756 mmHg 93%
    05:00 +26°C° 0,1 mm 3 m/s 756 mmHg 92%
    06:00 +26°C° 0,1 mm 3 m/s 757 mmHg 90%
    07:00 +26°C° 0,1 mm 3 m/s 757 mmHg 89%
    08:00 +28°C° 0,1 mm 3 m/s 757 mmHg 80%
    09:00 +30°C° 0,1 mm 3 m/s 757 mmHg 71%
    10:00 +33°C° 0,1 mm 4 m/s 758 mmHg 62%
    11:00 +34°C° 0 mm 4 m/s 757 mmHg 59%
    12:00 +35°C° 0 mm 5 m/s 757 mmHg 55%
    13:00 +36°C° 0 mm 5 m/s 756 mmHg 52%
    14:00 +35°C° 0,1 mm 5 m/s 756 mmHg 55%
    15:00 +34°C° 0,1 mm 6 m/s 756 mmHg 58%
    16:00 +34°C° 0,1 mm 6 m/s 755 mmHg 61%
    17:00 +32°C° 0 mm 5 m/s 755 mmHg 66%
    18:00 +30°C° 0 mm 5 m/s 756 mmHg 71%
    19:00 +29°C° 0 mm 5 m/s 756 mmHg 77%
    20:00 +28°C° 0 mm 5 m/s 756 mmHg 80%
    21:00 +28°C° 0 mm 5 m/s 757 mmHg 84%
    22:00 +27°C° 0 mm 4 m/s 757 mmHg 88%
    23:00 +27°C° 0 mm 4 m/s 757 mmHg 89%
    Mostrar mais